CAPE
0 0 0 0 0 0 0 0 0 0 0 0 0 0 0 0 0 0 0 0 11 17 26 35 40 44 49 49 55 52 64 67 71 88 103 108 111 112
0 0 0 0 0 0 0 0 0 0 0 0 0 0 0 0 0 0 0 8 7 18 27 30 28 28 37 41 47 56 68 79 90 96 117 109 119 127
0 0 0 0 0 0 0 0 0 0 0 0 0 0 0 0 0 2 2 0 0 13 16 13 19 27 38 41 47 43 56 68 78 79 107 100 112 113
0 0 0 0 0 0 0 0 0 0 0 0 2 0 2 1 2 4 3 8 0 1 11 13 22 26 29 36 38 37 45 47 50 79 105 102 99 112
0 0 0 0 0 0 0 0 0 1 3 4 1 5 5 6 8 13 0 2 0 0 8 6 15 16 23 32 29 36 37 36 37 48 49 53 68 85
0 0 0 0 0 0 0 0 1 1 5 4 2 1 6 25 10 3 1 0 0 0 0 2 12 7 18 13 14 14 19 29 34 40 43 46 52 73
0 0 0 0 0 0 3 5 7 9 12 10 11 12 26 2 0 1 2 1 0 0 1 0 1 0 0 2 2 6 12 24 26 28 34 52 61 73
0 0 0 0 0 0 8 13 15 16 20 28 31 26 1 1 1 2 0 7 11 0 2 0 0 0 0 0 2 9 14 18 21 22 30 39 52 57
0 0 0 0 0 0 3 14 17 33 44 31 16 12 4 0 0 0 3 12 1 0 1 0 0 0 0 0 2 7 10 11 12 17 19 21 32 46
0 0 0 0 0 4 3 8 12 16 9 11 4 1 0 1 1 16 4 1 0 0 4 4 0 0 0 0 0 1 5 9 9 11 15 15 21 33
0 0 0 0 3 15 13 9 15 2 2 6 7 19 29 24 10 1 0 2 3 0 0 5 0 1 0 0 0 1 0 2 2 7 14 15 15 25
0 0 0 2 12 20 17 5 2 0 0 0 1 0 0 0 7 3 3 8 2 1 0 1 1 8 0 0 0 0 0 0 4 6 10 13 16 8
0 0 0 8 17 27 26 2 0 7 8 2 0 0 0 0 2 4 3 4 4 0 0 1 0 1 3 0 0 0 0 0 0 0 2 6 15 26
1 1 1 14 21 15 7 5 12 15 0 1 0 1 3 4 5 6 5 4 3 1 2 5 0 0 0 0 0 0 0 0 0 0 0 3 21 41
5 8 14 10 7 0 0 4 5 0 1 3 4 2 3 3 4 4 4 3 5 1 0 0 0 0 0 0 0 0 4 1 0 0 0 4 1 1
6 2 2 2 0 0 0 0 0 0 2 1 2 0 2 2 4 3 3 3 1 0 0 0 0 0 1 0 1 0 2 0 0 1 2 2 2 0
9 0 0 0 0 0 0 0 0 0 2 2 3 3 3 3 1 0 1 0 3 1 1 0 0 0 0 1 1 0 1 0 0 2 0 2 0 0
0 0 0 0 0 0 1 1 2 5 3 4 1 2 2 1 1 0 2 2 1 1 1 1 0 0 0 0 9 1 0 0 0 2 1 2 0 0
0 0 0 1 1 2 4 3 3 4 1 1 2 1 0 0 1 1 1 2 2 1 1 0 0 0 1 1 0 1 0 0 0 1 5 3 5 1
0 1 1 1 1 3 2 4 3 2 1 1 0 0 1 0 0 0 0 0 0 0 0 0 1 0 0 3 3 0 0 0 1 1 1 1 1 6
1 1 0 0 1 1 2 1 0 0 0 1 0 0 0 0 0 0 0 5 5 0 0 0 0 13 0 0 0 0 0 0 0 0 1 2 1 0
1 1 0 0 1 1 1 0 0 1 0 0 0 0 0 0 0 0 0 0 0 0 0 1 0 0 0 0 0 0 0 0 0 0 0 6 0 0
1 1 0 0 1 1 0 0 0 0 0 0 0 0 0 0 0 0 0 1 0 0 1 0 0 0 0 0 1 0 0 0 0 0 0 2 9 4
CIN
-0 -0 -0 -0 -0 -0 -0 -0 -0 -0 -0 -0 -0 -0 -0 -0 -0 -0 -0 -0 -0 -0 -0 -0 -0 -0 -0 -0 -0 -0 -0 -0 -0 -0 -0 -0 -0 -0
-0 -0 -0 -0 -0 -0 -0 -0 -0 -0 -0 -0 -0 -0 -0 -0 -0 -0 -0 -0 -0 -0 -0 -0 -0 -0 -0 -0 -0 -0 -0 -0 -0 -0 -0 -0 -0 -0
-0 -0 -0 -0 -0 -0 -0 -0 -0 -0 -0 -0 -0 -0 -0 -0 -0 -0 -2 -0 -0 -0 -0 -0 -0 -0 -0 -0 -0 -0 -0 -0 -0 -0 -0 -0 -0 -0
-0 -0 -0 -0 -0 -0 -0 -0 -0 -0 -0 -0 -0 -0 -0 -0 -0 -3 -1 -0 -0 -0 -0 -0 -0 -0 -0 -0 -0 -0 -0 -0 -0 -0 -0 -0 -0 -0
-0 -0 -0 -0 -0 -0 -0 -0 -0 -0 -0 -0 -0 -0 -0 -0 -2 -1 -0 -1 -0 -0 -0 -0 -0 -0 -0 -0 -0 -0 -0 -0 -0 -0 -0 -0 -0 -0
-0 -0 -0 -0 -0 -0 -0 -0 -0 -0 -0 -0 -0 -1 -1 -0 -1 -0 -0 -0 -0 -0 -0 -0 -0 -0 -0 -0 -0 -0 -0 -0 -0 -0 -0 -0 -0 -0
-0 -0 -0 -0 -0 -0 -0 -0 -0 -0 -0 -0 -0 -1 -0 -0 -0 -1 -0 -1 -0 -1 -0 -0 -0 -0 -0 -0 -0 -0 -0 -0 -0 -0 -0 -0 -0 -0
-0 -0 -0 -0 -0 -0 -0 -0 -0 -2 -1 -0 -0 -0 -0 -1 -1 -2 -0 -0 -0 -0 -1 -0 -0 -0 -0 -0 -0 -0 -0 -0 -0 -0 -0 -0 -0 -0
-0 -0 -0 -0 -0 -0 -0 -0 -1 -0 -0 -1 -0 -0 -0 -0 -0 -0 -1 -0 -0 -0 -1 -1 -0 -0 -0 -0 -0 -0 -0 -0 -0 -0 -0 -0 -0 -0
-0 -0 -0 -0 -0 -1 -1 -4 -1 -1 -1 -0 -1 -1 -0 -0 -0 -0 -1 -2 -0 -0 -1 -1 -0 -0 -0 -0 -0 -0 -0 -0 -0 -0 -0 -0 -0 -0
-0 -0 -0 -0 -0 -0 -2 -3 -0 -0 -0 -0 -0 -0 -0 -0 -0 -3 -0 -0 -0 -0 -0 -1 -0 -1 -0 -0 -0 -0 -0 -0 -0 -0 -0 -0 -0 -0
-0 -0 -0 -0 -0 -0 -0 -0 -0 -0 -0 -0 -0 -0 -0 -0 -0 -2 -2 -0 -1 -1 -0 -2 -1 -1 -0 -0 -0 -0 -0 -0 -0 -0 -0 -0 -0 -0
-0 -0 -0 -0 -0 -0 -0 -2 -1 -0 -0 -0 -0 -0 -0 -0 -0 -0 -1 -1 -0 -1 -0 -1 -2 -1 -0 -0 -0 -0 -0 -0 -0 -0 -0 -0 -0 -0
-0 -0 -1 -0 -0 -0 -0 -0 -0 -0 -0 -0 -0 -1 -0 -1 -1 -1 -1 -1 -1 -0 -1 -1 -0 -1 -1 -0 -1 -0 -0 -0 -0 -0 -0 -0 -0 -0
-0 -0 -0 -0 -0 -0 -0 -0 -0 -0 -0 -0 -0 -1 -1 -2 -2 -2 -3 -3 -3 -2 -0 -0 -1 -0 -0 -0 -1 -0 -1 -2 -0 -0 -4 -0 -1 -1
-0 -2 -0 -0 -0 -0 -0 -0 -0 -0 -0 -0 -0 -1 -2 -1 -1 -2 -1 -1 -1 -0 -0 -0 -1 -1 -0 -0 -1 -1 -2 -0 -0 -2 -1 -1 -1 -3
-1 -0 -0 -0 -0 -0 -0 -0 -0 -0 -0 -0 -0 -0 -0 -1 -1 -1 -1 -1 -0 -1 -1 -1 -1 -1 -1 -1 -0 -0 -1 -1 -1 -2 -0 -1 -0 -1
-0 -0 -0 -0 -0 -0 -0 -0 -0 -0 -0 -0 -1 -0 -1 -1 -1 -0 -1 -1 -1 -1 -1 -2 -1 -2 -0 -0 -1 -1 -0 -0 -1 -2 -1 -0 -1 -0
-0 -0 -0 -0 -0 -0 -0 -0 -0 -0 -1 -1 -1 -1 -1 -1 -1 -1 -1 -1 -1 -1 -1 -0 -2 -1 -1 -1 -0 -1 -0 -0 -0 -1 -1 -1 -0 -1
-0 -0 -0 -0 -0 -0 -0 -0 -0 -1 -1 -1 -1 -1 -1 -1 -0 -0 -0 -0 -0 -0 -0 -1 -2 -0 -1 -1 -0 -0 -0 -0 -0 -0 -1 -1 -1 -0
-0 -0 -0 -0 -0 -0 -0 -1 -1 -1 -0 -0 -0 -1 -0 -1 -0 -0 -0 -0 -0 -1 -0 -0 -1 -0 -0 -0 -0 -2 -0 -0 -1 -0 -0 -0 -0 -1
-0 -0 -0 -1 -0 -0 -0 -1 -1 -0 -1 -1 -0 -1 -0 -0 -0 -0 -0 -0 -0 -0 -0 -1 -0 -0 -0 -1 -0 -0 -0 -0 -0 -0 -0 -0 -0 -0
-0 -0 -0 -1 -0 -1 -1 -1 -1 -1 -0 -0 -0 -0 -0 -0 -0 -0 -0 -0 -0 -0 -2 -0 -0 -1 -1 -0 -0 -0 -0 -0 -1 -0 -0 -0 -0 -0
Wind_Speed
4 4 5 5 4 5 5 6 8 11 11 8 9 7 8 8 11 12 13 22 27 27 29 29 30 31 32 31 32 32 32 33 31 32 32 33 35 36
3 6 6 5 6 5 6 6 7 9 12 9 9 11 11 9 13 15 15 24 23 27 30 31 30 29 30 30 30 32 33 32 32 33 33 34 34 35
5 6 7 7 6 6 6 7 7 8 12 10 9 10 13 14 13 13 12 13 14 26 30 29 29 29 30 30 31 31 31 32 33 33 34 33 34 34
7 7 8 7 7 8 7 9 8 10 11 16 11 10 12 13 15 14 12 12 15 19 27 29 30 30 31 31 31 31 32 32 32 32 33 34 34 34
7 8 8 9 8 7 8 9 9 9 10 12 12 10 10 11 13 12 14 12 10 20 25 28 30 32 31 30 31 32 32 32 32 33 33 33 34 34
8 8 9 9 10 9 9 11 10 11 11 11 12 12 11 11 11 12 11 9 11 11 19 24 28 29 30 30 32 32 31 31 31 31 32 31 31 33
8 9 8 9 14 14 9 10 11 10 10 11 12 12 11 11 12 10 12 11 14 13 10 15 10 12 15 23 24 29 28 29 30 31 31 32 33 33
8 9 9 12 12 16 18 19 16 13 14 12 12 12 16 12 11 10 13 13 12 10 9 16 12 14 13 12 25 30 31 31 30 31 31 31 32 33
9 9 9 9 12 10 14 19 18 24 24 16 17 14 15 13 13 15 15 13 15 13 13 15 11 14 12 14 27 30 31 32 31 29 29 30 30 32
9 9 10 10 10 13 11 11 12 13 15 12 13 13 13 14 15 13 14 15 15 12 11 13 12 16 13 11 30 32 29 27 25 26 29 31 32 32
8 9 10 10 15 18 14 13 14 13 15 22 22 27 29 28 22 11 10 12 14 14 9 12 11 12 14 16 13 22 25 26 30 29 30 30 31 33
9 10 15 14 18 21 15 13 15 14 13 14 14 16 17 14 21 12 10 10 11 16 8 8 11 9 9 8 8 11 12 23 28 30 29 29 31 16
8 8 8 19 21 24 24 13 14 16 16 12 12 10 10 10 10 10 11 10 11 14 16 12 9 11 9 13 11 11 12 14 12 16 27 30 30 26
9 8 9 21 25 24 19 20 21 20 9 9 9 10 10 10 10 11 14 13 13 17 17 15 11 12 13 14 16 13 13 13 12 13 14 21 29 31
8 14 23 24 22 16 18 20 18 8 8 9 10 10 10 10 13 13 13 14 14 16 14 16 13 13 12 14 16 15 17 14 14 14 12 13 14 14
13 11 16 19 17 15 12 10 7 8 9 9 10 11 10 10 11 10 11 11 11 12 12 13 13 13 12 13 14 15 14 13 14 14 13 14 14 13
16 8 8 7 7 8 7 8 8 8 9 9 9 10 11 10 11 10 10 10 11 12 13 12 12 13 14 17 15 14 13 14 13 14 14 15 15 13
9 8 7 7 8 8 9 9 9 12 9 9 10 10 10 11 11 11 10 10 11 12 12 12 12 12 11 11 18 12 11 13 13 14 14 12 14 13
6 7 7 7 8 8 9 9 11 10 11 9 10 10 10 10 14 11 11 11 11 12 12 12 11 11 13 15 13 9 10 13 14 12 11 11 13 15
6 7 7 8 8 8 9 10 10 10 10 10 10 10 10 10 11 11 11 11 11 12 12 11 10 10 11 14 16 17 20 12 12 13 13 12 12 19
6 7 7 8 8 9 9 9 10 11 12 10 11 10 10 10 11 11 11 20 20 11 12 12 11 26 12 12 10 12 12 18 16 14 12 11 9 7
7 8 8 8 9 9 9 9 10 11 11 10 10 10 10 10 11 12 11 11 12 11 11 10 13 11 9 10 12 15 13 12 14 19 19 11 7 6
7 8 8 9 9 9 9 9 10 11 11 11 10 10 10 11 11 11 11 12 12 10 11 12 11 10 10 9 15 11 16 13 10 11 9 17 16 17
Wind_Direction
277 271 272 283 289 290 291 288 291 296 295 301 298 325 312 310 299 307 301 293 293 298 299 300 299 296 298 298 298 297 295 291 289 283 283 281 277 275
273 289 292 292 300 296 285 284 281 285 286 298 293 307 306 306 306 298 288 293 301 299 297 290 295 298 296 294 293 289 290 289 286 284 280 281 277 274
280 281 289 293 288 292 292 287 283 284 286 290 292 299 305 303 294 291 304 299 287 293 299 297 296 294 292 291 289 290 288 285 284 284 284 283 281 277
289 289 289 294 294 290 287 291 290 289 287 292 295 303 291 294 293 301 287 284 291 289 299 300 297 296 296 293 292 288 285 283 285 286 283 282 281 274
287 288 293 294 292 294 296 296 292 291 291 294 301 298 301 299 299 284 290 284 296 302 298 299 300 296 293 293 291 288 287 288 288 285 283 280 278 276
289 285 285 289 292 300 307 299 299 302 300 302 303 298 293 298 288 300 299 299 296 296 296 291 296 292 290 294 293 291 289 287 285 283 283 283 279 278
295 291 287 296 296 284 287 289 300 302 303 296 291 295 298 307 302 306 299 309 297 288 299 289 287 295 286 288 286 288 286 285 284 283 279 276 275 273
297 300 301 298 294 302 296 301 301 298 292 290 289 299 300 298 307 311 303 297 298 293 298 296 293 287 286 284 286 291 292 289 285 282 281 279 277 275
296 296 297 301 309 304 304 303 310 296 297 297 291 292 298 304 305 294 291 297 294 296 294 286 294 287 288 287 289 290 294 291 286 284 283 281 281 280
291 292 296 299 302 302 301 293 294 291 285 287 290 296 292 293 285 282 294 294 288 285 285 285 294 288 289 290 294 293 291 285 285 285 285 284 282 275
297 303 302 302 304 308 307 307 297 299 298 301 308 299 295 297 303 299 291 294 291 290 297 287 287 296 297 289 280 285 291 295 297 292 289 286 284 281
314 311 307 307 310 314 307 307 304 307 309 302 298 298 299 297 299 295 290 284 290 294 292 296 298 305 299 283 286 298 286 291 294 292 289 288 287 281
306 307 313 313 315 308 313 309 301 301 306 304 296 298 301 300 296 294 292 285 287 282 288 300 296 293 273 297 289 292 290 291 291 291 289 287 286 283
302 304 303 307 311 314 315 305 304 307 300 293 298 299 298 296 296 297 292 282 269 268 283 280 278 280 283 286 290 297 291 290 288 288 286 281 282 283
304 308 315 313 313 310 303 305 308 298 300 301 296 294 294 295 295 289 288 283 280 276 275 275 268 275 272 278 284 286 291 298 291 283 282 284 288 285
315 306 311 306 308 308 311 310 311 309 302 300 296 293 294 295 293 292 293 295 290 289 287 278 274 276 279 273 276 281 286 287 285 283 289 287 287 283
318 315 300 309 313 312 314 316 312 308 300 297 295 297 295 294 294 296 291 292 290 297 299 299 289 276 269 271 277 278 284 284 288 295 294 293 293 291
314 304 310 316 314 317 314 309 303 303 301 300 296 292 295 297 296 297 298 292 292 295 294 297 300 296 291 270 256 277 287 290 295 297 294 293 295 305
305 310 306 309 311 308 305 303 301 302 303 294 295 295 294 294 305 298 298 296 298 298 293 296 300 299 305 307 309 276 301 293 295 293 299 297 296 305
309 305 306 307 307 303 301 299 299 301 299 296 294 296 296 291 296 296 297 299 296 295 299 303 299 301 299 306 307 303 302 295 300 300 304 297 287 291
309 308 307 304 302 299 296 297 297 297 298 302 297 293 294 294 293 292 293 301 304 300 299 301 306 309 300 290 295 301 306 305 298 301 303 304 309 309
312 309 306 302 299 295 296 298 297 298 298 296 293 292 292 291 292 294 295 296 296 293 293 303 306 305 301 306 301 305 308 313 310 309 306 302 318 312
310 307 303 298 296 295 296 297 296 295 295 295 294 293 293 296 295 292 292 292 292 299 310 307 311 313 312 313 315 311 317 321 321 325 327 336 329 328